Wind_Speed
5 4 3 3 2 1 3 3 3 3 3 3 4 5 6 7 8 8 9 9 10 11 12 12 13 13 14 14 15 15 15 16 16 16 16 17 17 17 17 17 17 18 18 18 18 19 19 20 20
4 4 3 3 1 2 3 3 3 4 4 4 5 6 7 7 7 8 9 10 10 11 12 12 13 13 14 14 15 15 15 16 16 16 16 17 17 17 17 17 17 18 18 18 19 19 19 20 20
3 3 2 2 2 3 3 3 3 3 4 4 6 7 7 8 8 9 10 11 11 12 12 13 14 14 15 15 15 16 16 16 17 17 17 17 18 18 18 18 18 18 18 19 19 19 19 20 20
2 2 1 1 2 3 3 3 3 4 4 5 7 8 8 8 9 10 11 12 12 13 13 14 14 15 16 16 16 17 17 17 18 18 18 18 18 18 18 18 18 18 19 19 19 19 19 20 20
3 2 2 2 2 3 3 4 4 5 6 7 8 9 9 8 10 11 12 13 14 14 15 16 16 16 17 17 17 18 18 18 18 19 19 19 19 18 18 19 19 19 19 19 20 20 20 20 20
5 5 4 2 2 3 4 4 6 7 8 8 9 10 10 10 11 11 12 14 15 15 16 17 17 17 18 18 18 19 19 19 19 19 19 19 19 20 20 20 20 20 20 20 20 20 20 21 21
7 7 6 4 4 5 5 6 7 9 10 10 11 12 12 11 13 13 14 15 15 16 16 17 18 18 18 19 19 19 19 20 20 20 20 20 21 21 21 21 21 21 21 21 22 22 22 22 22
9 9 8 7 7 7 7 8 9 10 11 12 13 14 15 14 14 15 15 16 16 17 17 17 18 18 19 19 20 20 20 20 21 21 21 22 22 22 22 23 23 23 23 23 23 23 24 24 24
10 10 10 10 9 9 9 10 11 12 13 13 14 15 16 16 16 16 16 17 17 17 18 18 18 19 20 20 20 20 21 21 21 22 22 22 23 23 24 24 24 25 25 25 25 25 26 26 26
11 11 12 11 11 11 11 12 13 13 14 15 15 16 16 16 17 17 17 17 18 18 18 18 19 20 20 20 21 21 22 22 22 23 23 24 24 24 25 26 26 27 27 27 28 28 29 29 29
12 13 13 13 13 13 13 13 14 15 16 16 16 17 17 17 18 18 18 18 18 19 19 19 19 20 20 21 21 22 22 23 23 24 25 25 25 26 26 27 27 28 29 29 30 31 31 32 32
13 13 13 13 13 14 14 14 15 16 16 16 17 17 18 18 18 18 18 18 18 19 19 20 20 20 21 21 22 23 23 24 25 25 26 27 27 28 28 28 29 29 30 31 32 32 33 34 35
13 13 13 13 14 14 14 15 15 16 16 17 17 18 18 18 18 18 18 18 18 18 19 20 20 20 21 22 22 23 24 25 25 26 27 27 28 29 29 30 30 31 32 32 33 34 34 35 36
14 14 13 13 14 14 14 14 15 16 16 17 17 18 18 18 18 18 18 18 19 19 19 20 21 21 22 22 23 24 24 25 25 26 27 27 28 29 29 30 31 32 32 33 34 35 36 37 38
14 14 14 14 14 14 15 15 15 16 16 16 17 17 18 18 18 18 18 18 19 19 20 21 21 22 22 23 23 24 24 25 25 26 26 27 27 28 29 30 31 32 33 34 34 35 36 37 38
15 15 15 14 15 15 16 15 15 16 16 17 17 17 18 18 18 18 18 19 19 19 20 21 21 22 22 23 23 23 24 24 25 26 26 27 28 29 30 31 32 33 33 34 36 37 38 39 40
16 16 16 14 15 16 16 16 16 16 17 17 17 18 18 18 18 18 18 19 19 20 20 21 22 22 22 22 23 23 24 25 26 26 27 28 29 30 31 31 33 34 35 36 37 38 39 40 41
16 16 16 16 15 16 17 16 16 16 17 17 18 18 18 18 18 18 19 20 20 21 22 22 23 23 23 23 24 25 25 26 26 27 28 29 30 31 32 33 34 36 37 38 40 41 42 43 45
17 16 16 17 16 17 17 17 17 17 18 18 18 18 18 19 19 19 20 21 22 22 23 23 23 24 24 25 25 26 26 27 28 29 30 31 33 34 35 36 37 39 40 41 43 44 45 46 48
17 17 18 18 17 18 18 18 17 17 17 18 18 18 19 20 20 21 22 22 23 23 24 24 25 25 26 27 27 28 28 29 31 32 33 34 35 36 38 39 40 41 43 44 45 47 48 49 51
18 18 18 18 18 19 19 18 17 18 18 19 19 20 20 21 21 22 23 23 24 25 25 26 27 28 28 29 29 30 31 32 33 34 35 37 38 39 41 42 43 45 46 47 49 51 52 53 55
19 18 19 19 19 19 20 20 17 18 19 20 21 21 21 22 22 23 24 25 26 26 27 28 29 29 30 31 32 33 34 35 36 37 38 39 41 42 44 45 47 48 50 52 53 55 57 58 59
19 19 19 19 20 20 20 22 19 17 19 21 22 22 22 23 24 25 26 26 28 29 29 30 31 31 32 33 34 35 36 37 38 39 41 42 44 45 47 49 51 52 54 56 57 59 60 62 64
20 20 20 20 21 20 19 22 22 18 20 22 22 23 24 25 26 26 27 28 29 30 31 32 33 33 34 36 37 38 38 40 41 42 44 45 47 49 51 53 54 56 58 60 62 63 65 67 68
21 20 21 21 21 21 19 21 22 21 22 23 23 24 25 26 27 28 29 30 31 32 34 34 35 36 37 38 39 40 41 42 44 45 47 49 51 53 54 56 58 60 62 64 66 67 69 70 72
21 21 21 21 21 22 20 21 21 22 24 25 25 26 27 28 29 30 31 32 34 34 36 36 38 39 39 40 41 42 44 45 47 49 51 53 54 56 58 60 62 64 66 68 69 71 72 73 75
21 21 21 22 22 23 23 24 21 22 25 26 27 28 29 30 31 32 33 35 36 37 38 39 40 41 42 43 44 45 47 49 50 52 54 56 57 59 61 63 65 67 68 70 71 72 74 75 76
22 21 22 23 24 25 24 25 25 22 25 27 29 30 31 32 33 34 35 37 38 39 40 41 42 43 44 46 47 48 50 52 54 55 57 59 61 63 65 66 67 68 70 71 73 74 75 75 75
23 23 23 24 25 26 26 26 27 26 27 29 31 31 32 33 35 36 38 39 40 40 41 43 44 45 46 48 50 51 53 55 57 58 60 62 64 65 67 68 69 70 72 74 75 76 76 76 76
24 23 24 25 26 27 28 28 26 28 30 32 32 33 34 35 37 38 39 40 41 42 44 45 47 48 49 51 52 54 56 58 60 61 63 64 66 67 68 70 71 73 74 76 76 76 76 76 76
Wind_Direction
27 31 34 42 50 56 51 32 353 332 319 309 294 287 286 286 288 291 284 285 284 283 282 281 281 279 277 275 274 272 270 269 267 267 267 268 269 269 270 271 271 271 271 271 271 271 272 272 271
30 34 42 44 34 55 50 19 348 340 328 308 294 288 288 291 292 293 287 288 287 285 284 283 283 281 280 279 276 273 272 270 268 267 268 269 270 270 271 271 271 271 271 272 272 272 272 272 271
15 23 37 27 18 33 31 9 355 341 321 306 298 293 292 295 293 291 288 287 286 285 285 284 284 282 281 280 279 275 273 271 270 269 269 269 270 270 270 271 271 271 272 272 273 272 272 271 271
335 342 8 351 16 15 4 346 337 320 311 303 298 297 298 298 292 289 288 287 285 285 285 284 283 283 282 281 280 277 275 273 271 270 270 269 269 269 270 270 271 272 273 273 273 272 272 271 270
287 288 297 324 354 345 334 325 317 312 310 305 303 302 306 301 295 291 288 287 286 285 284 284 282 281 281 281 280 279 278 276 273 272 271 270 270 270 271 271 273 273 273 272 273 273 272 271 270
272 275 280 296 311 306 304 305 305 305 306 304 305 304 308 305 298 294 292 290 288 287 286 284 283 282 280 280 280 280 278 276 275 274 273 272 270 271 271 272 272 272 272 271 271 272 271 271 270
267 275 279 282 284 288 293 298 300 303 304 305 305 304 309 306 299 296 293 291 289 288 287 286 285 283 281 280 280 279 278 276 276 276 275 273 272 272 272 272 272 272 271 271 270 270 270 269 269
264 269 271 275 276 279 285 289 295 299 302 303 302 302 306 303 300 297 294 292 290 288 286 285 285 283 282 281 280 279 278 277 276 276 276 275 274 273 273 272 272 272 271 271 270 269 269 268 268
264 265 268 273 275 279 283 285 291 295 298 300 300 301 303 302 300 298 295 293 291 289 287 285 284 283 282 281 280 280 279 278 278 277 277 276 276 275 274 273 272 272 271 271 270 270 269 268 268
262 263 268 274 277 280 283 285 289 292 295 298 299 299 300 300 299 297 296 293 291 290 288 287 286 285 284 282 281 281 280 280 279 278 278 277 277 276 275 274 273 273 272 272 271 271 270 269 268
263 263 268 271 276 280 283 287 290 294 296 297 298 298 297 298 297 297 295 294 292 290 289 288 286 285 284 283 281 281 281 280 279 278 278 278 277 277 276 276 275 274 273 273 272 272 271 270 269
264 264 267 271 275 279 283 287 291 294 295 297 298 297 297 298 298 297 296 294 293 292 290 289 288 287 286 285 283 282 281 281 280 279 279 278 278 277 277 276 276 275 275 274 274 274 273 272 271
265 265 268 271 275 280 284 287 291 293 296 297 297 298 298 298 298 298 297 296 294 293 292 291 290 288 287 286 285 284 283 283 283 282 281 281 281 280 280 279 278 277 277 276 276 276 275 275 274
266 266 269 272 276 281 285 289 291 294 296 298 299 299 299 298 297 295 295 294 294 293 293 292 292 291 289 288 287 286 286 285 285 285 285 284 284 284 283 283 282 281 280 279 279 278 277 276 275
264 265 268 272 276 281 286 289 293 295 296 297 298 298 299 298 297 295 295 295 295 295 294 294 294 293 292 290 289 289 288 287 287 286 286 286 285 285 285 284 283 283 282 281 280 279 278 277 277
262 265 268 272 277 281 286 289 293 295 296 297 297 298 298 298 297 297 296 296 296 296 296 295 295 295 294 293 291 290 290 289 288 288 287 287 286 286 286 286 285 284 284 284 283 282 281 280 279
260 264 270 273 279 284 287 290 293 295 296 297 298 298 298 297 297 298 298 298 298 297 297 297 296 295 294 293 292 292 291 290 289 289 288 288 288 288 288 288 288 287 287 286 285 285 284 283 282
262 266 272 277 280 285 288 291 294 296 297 298 298 299 299 299 299 299 298 298 299 299 299 298 297 296 296 295 294 294 293 292 291 290 290 290 290 290 289 289 289 289 288 288 287 286 285 285 284
262 266 272 278 283 285 287 291 295 297 298 298 299 299 300 300 300 299 299 299 299 299 299 299 298 298 297 296 295 294 293 292 292 292 292 291 291 291 291 291 290 290 290 290 289 288 287 286 285
261 266 272 276 281 284 286 290 294 297 298 298 299 300 300 300 299 299 300 300 300 299 299 299 299 298 298 296 295 294 294 294 293 293 293 293 293 293 293 292 292 292 291 291 290 290 289 288 288
260 266 271 276 279 283 286 288 292 295 297 298 299 300 300 300 300 299 299 299 300 299 299 299 299 298 298 296 296 295 296 295 295 294 294 294 294 294 294 294 293 293 293 292 292 291 291 290 289
260 266 270 275 278 282 286 288 290 293 297 298 299 300 300 300 300 299 299 298 299 299 299 299 299 298 297 297 296 296 296 296 295 294 294 294 294 294 294 294 294 294 294 294 293 293 292 291 290
260 264 269 273 277 281 286 289 292 295 297 297 299 300 300 300 300 299 299 299 299 299 299 299 298 297 296 296 297 297 296 296 295 295 295 294 295 295 295 295 295 295 295 294 294 294 293 293 292
259 263 267 271 275 278 282 287 292 301 298 298 299 300 299 300 300 300 299 299 299 299 299 298 298 297 297 297 297 297 296 296 296 296 296 296 296 296 296 296 296 296 295 295 295 295 294 294 293
258 263 266 269 273 277 280 285 294 301 299 299 300 299 299 300 300 300 299 300 299 299 299 298 298 298 298 297 297 297 296 296 296 297 296 296 296 296 297 297 297 297 296 296 296 296 295 295 294
256 261 266 271 276 280 283 286 294 297 298 299 299 299 299 300 301 301 300 300 300 300 299 299 299 298 298 298 298 298 297 297 297 298 297 297 298 298 298 298 298 298 298 297 297 297 296 296 295
255 259 265 270 273 277 282 285 287 292 295 297 298 299 300 300 301 302 301 301 301 300 300 300 299 299 299 299 299 299 299 299 299 299 299 299 299 299 299 299 299 299 299 299 298 298 298 297 296
255 259 263 268 273 277 282 287 291 294 293 295 296 298 299 300 301 301 302 302 301 300 300 300 300 300 299 299 299 299 300 300 300 300 301 301 301 301 301 301 301 301 301 300 300 300 299 298 297
256 260 264 268 273 280 284 286 293 295 294 295 296 298 299 300 301 301 301 301 301 301 301 301 301 301 300 300 300 301 301 301 302 302 302 303 302 302 302 302 302 302 302 302 301 301 300 299 298
256 260 264 269 274 278 283 286 292 292 293 294 297 299 299 300 301 301 301 301 301 301 301 302 302 301 301 301 301 302 302 303 303 304 304 304 303 303 304 304 304 304 304 303 302 301 300 300 299
Height
5863 5863 5863 5863 5864 5863 5862 5862 5862 5862 5862 5863 5863 5863 5863 5864 5865 5868 5865 5865 5865 5866 5866 5866 5866 5866 5866 5866 5866 5866 5866 5866 5867 5867 5867 5867 5868 5868 5868 5869 5869 5869 5869 5870 5870 5870 5870 5870 5871
5864 5863 5864 5864 5864 5862 5862 5862 5862 5862 5862 5862 5862 5862 5862 5862 5863 5864 5863 5863 5864 5864 5864 5864 5864 5864 5864 5864 5863 5864 5864 5864 5864 5864 5864 5865 5865 5865 5865 5866 5866 5866 5866 5867 5867 5867 5867 5867 5868
5864 5864 5864 5864 5863 5862 5862 5862 5862 5862 5862 5862 5862 5862 5862 5862 5862 5862 5862 5862 5862 5862 5862 5862 5862 5862 5861 5861 5861 5861 5861 5861 5861 5861 5862 5862 5862 5862 5862 5863 5863 5863 5863 5864 5864 5864 5864 5864 5864
5864 5864 5864 5864 5863 5863 5862 5863 5862 5862 5862 5861 5861 5861 5861 5861 5860 5860 5860 5860 5860 5860 5860 5859 5859 5859 5859 5859 5858 5858 5858 5858 5858 5858 5858 5859 5859 5859 5859 5860 5860 5860 5860 5860 5861 5861 5861 5861 5861
5863 5864 5864 5863 5862 5862 5862 5862 5862 5862 5861 5861 5860 5860 5860 5860 5859 5858 5858 5858 5857 5858 5857 5857 5856 5856 5856 5856 5855 5855 5855 5855 5855 5855 5855 5855 5856 5856 5856 5856 5856 5857 5857 5857 5857 5857 5857 5858 5858
5863 5863 5863 5862 5862 5862 5862 5862 5861 5861 5861 5860 5859 5859 5858 5858 5857 5857 5856 5855 5855 5855 5855 5854 5853 5853 5853 5852 5852 5852 5852 5852 5852 5852 5852 5852 5852 5852 5852 5852 5853 5853 5853 5853 5853 5853 5853 5854 5854
5862 5862 5861 5861 5861 5861 5861 5861 5860 5860 5859 5859 5858 5857 5857 5857 5855 5855 5854 5853 5853 5852 5852 5851 5850 5850 5849 5849 5849 5848 5848 5848 5848 5848 5848 5848 5848 5848 5848 5848 5848 5849 5849 5849 5849 5849 5849 5849 5850
5860 5861 5860 5860 5859 5860 5860 5859 5859 5859 5858 5858 5857 5856 5855 5855 5853 5852 5851 5851 5850 5849 5849 5848 5847 5846 5846 5845 5845 5845 5844 5844 5844 5844 5844 5844 5844 5844 5844 5844 5844 5844 5844 5844 5844 5845 5845 5845 5845
5858 5860 5858 5858 5858 5858 5858 5858 5857 5857 5856 5855 5855 5854 5853 5851 5850 5850 5849 5848 5847 5846 5845 5845 5844 5843 5842 5842 5841 5841 5841 5840 5840 5840 5840 5840 5840 5840 5839 5839 5839 5839 5839 5839 5839 5839 5839 5840 5840
5856 5857 5857 5856 5856 5856 5856 5856 5855 5855 5854 5853 5852 5851 5850 5849 5848 5847 5846 5845 5844 5843 5842 5841 5841 5839 5839 5838 5837 5837 5836 5836 5836 5835 5835 5835 5835 5835 5834 5834 5834 5834 5833 5833 5833 5833 5834 5834 5834
5854 5854 5854 5854 5854 5854 5853 5853 5853 5852 5852 5851 5849 5848 5847 5846 5845 5844 5842 5841 5840 5839 5838 5837 5837 5836 5835 5834 5833 5833 5832 5831 5831 5831 5830 5830 5829 5829 5829 5828 5828 5828 5827 5827 5827 5827 5827 5827 5827
5851 5851 5851 5851 5851 5851 5851 5850 5850 5849 5849 5848 5846 5845 5844 5843 5842 5840 5839 5838 5837 5835 5834 5833 5832 5832 5831 5830 5829 5828 5827 5827 5826 5825 5825 5824 5824 5823 5823 5822 5822 5821 5821 5820 5820 5820 5819 5819 5819
5849 5849 5849 5849 5848 5848 5848 5848 5847 5846 5845 5844 5843 5842 5841 5839 5838 5837 5835 5834 5833 5832 5830 5829 5828 5827 5826 5825 5824 5823 5823 5822 5821 5820 5819 5818 5818 5817 5816 5816 5815 5814 5814 5813 5813 5812 5811 5811 5810
5846 5846 5846 5845 5845 5845 5845 5845 5844 5843 5842 5841 5840 5838 5837 5836 5835 5833 5832 5831 5830 5828 5827 5825 5824 5823 5822 5821 5820 5819 5818 5817 5816 5815 5813 5813 5812 5811 5810 5809 5808 5807 5806 5806 5805 5804 5803 5802 5801
5842 5843 5843 5842 5842 5842 5842 5842 5841 5840 5839 5838 5836 5835 5834 5832 5831 5830 5829 5827 5826 5824 5823 5821 5820 5819 5817 5816 5815 5814 5812 5811 5810 5809 5808 5806 5805 5804 5803 5802 5801 5800 5799 5798 5796 5795 5794 5793 5792
5839 5839 5840 5840 5839 5839 5840 5839 5838 5836 5835 5834 5833 5832 5830 5829 5828 5826 5825 5823 5822 5820 5819 5817 5816 5814 5813 5811 5810 5808 5807 5806 5804 5803 5802 5800 5799 5798 5796 5795 5793 5792 5791 5789 5788 5786 5785 5784 5783
5836 5836 5835 5836 5836 5835 5835 5835 5834 5833 5832 5830 5829 5828 5827 5825 5824 5822 5821 5819 5818 5816 5815 5813 5811 5810 5808 5807 5805 5803 5802 5800 5799 5797 5795 5794 5792 5791 5789 5788 5786 5784 5782 5781 5779 5777 5775 5774 5772
5832 5832 5832 5832 5832 5832 5831 5831 5830 5829 5828 5827 5826 5824 5823 5822 5820 5819 5817 5815 5814 5812 5811 5809 5807 5805 5803 5802 5800 5798 5796 5795 5793 5791 5789 5787 5785 5784 5782 5780 5778 5775 5774 5771 5769 5767 5765 5763 5761
5828 5828 5828 5828 5828 5828 5827 5827 5826 5825 5824 5823 5822 5821 5819 5818 5816 5815 5813 5811 5810 5808 5806 5804 5802 5800 5799 5797 5795 5793 5791 5789 5787 5785 5782 5780 5778 5776 5774 5771 5769 5766 5764 5761 5759 5756 5754 5752 5748
5824 5825 5825 5825 5824 5824 5823 5823 5822 5821 5820 5819 5818 5816 5815 5814 5812 5810 5809 5807 5805 5803 5801 5799 5797 5795 5793 5791 5789 5787 5785 5783 5780 5778 5775 5773 5770 5767 5765 5762 5759 5756 5754 5751 5747 5744 5741 5739 5735
5821 5821 5821 5820 5820 5819 5819 5819 5819 5817 5816 5815 5813 5812 5811 5809 5808 5806 5804 5802 5800 5798 5796 5794 5792 5790 5787 5785 5783 5780 5778 5775 5773 5770 5767 5764 5761 5758 5755 5752 5749 5746 5742 5739 5735 5732 5728 5725 5722
5817 5817 5817 5816 5815 5815 5815 5814 5815 5813 5812 5810 5809 5808 5806 5805 5803 5801 5799 5797 5795 5793 5791 5789 5786 5784 5781 5779 5776 5774 5771 5768 5765 5762 5759 5756 5752 5749 5745 5741 5738 5734 5730 5726 5722 5718 5714 5710 5706
5812 5813 5812 5812 5811 5811 5810 5808 5810 5810 5808 5806 5805 5803 5801 5800 5798 5796 5794 5792 5790 5787 5785 5782 5780 5777 5775 5772 5769 5766 5763 5760 5757 5753 5750 5746 5743 5738 5734 5730 5726 5721 5717 5712 5708 5703 5698 5693 5689
5808 5808 5808 5807 5806 5807 5806 5804 5803 5804 5803 5801 5800 5798 5796 5795 5793 5791 5789 5786 5784 5781 5779 5776 5773 5770 5767 5764 5761 5758 5755 5751 5748 5744 5740 5736 5732 5727 5723 5718 5713 5708 5703 5698 5692 5687 5682 5676 5670
5803 5803 5803 5803 5802 5802 5802 5800 5800 5799 5797 5795 5794 5793 5791 5789 5787 5785 5783 5780 5777 5774 5772 5769 5766 5763 5759 5756 5753 5749 5745 5742 5738 5734 5729 5725 5720 5715 5710 5705 5699 5693 5688 5682 5675 5669 5664 5657 5651
5797 5798 5799 5798 5798 5796 5796 5795 5796 5794 5791 5789 5788 5787 5785 5783 5781 5779 5776 5773 5770 5767 5764 5761 5758 5754 5751 5747 5743 5739 5735 5731 5727 5722 5717 5712 5707 5702 5696 5690 5684 5677 5671 5664 5657 5651 5644 5637 5630
5792 5793 5793 5793 5792 5791 5791 5791 5791 5789 5786 5784 5782 5781 5779 5777 5774 5771 5769 5766 5763 5759 5756 5752 5749 5745 5741 5737 5733 5729 5724 5720 5715 5710 5704 5699 5693 5687 5680 5674 5667 5660 5653 5645 5638 5631 5623 5616 5608
5788 5788 5788 5787 5786 5786 5786 5784 5784 5784 5781 5779 5776 5775 5772 5770 5767 5764 5761 5758 5754 5751 5747 5743 5739 5735 5731 5727 5722 5718 5713 5707 5702 5696 5690 5684 5678 5671 5664 5657 5649 5642 5634 5626 5618 5610 5602 5594 5587
5782 5783 5782 5781 5781 5780 5779 5781 5778 5777 5775 5772 5770 5768 5765 5762 5759 5756 5753 5749 5746 5742 5738 5734 5730 5725 5721 5716 5711 5706 5700 5694 5688 5682 5676 5669 5662 5654 5647 5639 5631 5623 5615 5606 5598 5589 5581 5573 5565
5776 5777 5776 5776 5776 5774 5773 5776 5772 5770 5767 5765 5763 5760 5757 5754 5751 5748 5744 5740 5737 5733 5728 5724 5719 5715 5710 5704 5699 5693 5687 5681 5674 5667 5660 5653 5645 5637 5629 5621 5613 5604 5595 5586 5577 5568 5560 5551 5543